Content
SEND FEEDBACK

Daily
Averages
Monthly
Summary
United States of America

BROADBENT, OREGON


Home > North America > United States > Oregon
Elevation: 985 feet     Latitude: 42 59N     Longitude: 124 15W

WEATHER
 
SELECT A DAY
Number of Records: 443,446;   Date Range: 1/1/95 - 9/20/14
 
SHARE

PRINT THIS DATA

[ ← Previous Day ]
WEATHER ALMANAC - FEBRUARY 5, 2013
[ Next Day → ]
[ °C ]   °F
Weather ElementAverageHighLow
Temperature48.8 °F53.6 °F (11:55 am)42.8 °F (10:15 pm)
Dewpoint45.5 °F48.2 °F (10:15 am)42.8 °F (12:35 am)
Humidity88.6 %100 % (5:55 am)72 % (2:15 pm)
Barometer30.05 in30.15 in (11:55 pm)29.98 in (5:35 am)
Wind Speed10 mph17.3 mph (12:15 pm)
Wind Gust25.3 mph (11:35 am)
Weather ElementAverage
Visibility9.5 mi
Wind DirectionSSW (188.5 °)

Weather ElementTotal
Precipitation0.22 in
Heating Degree Days16.8 (Base 65)
Averaged from 68 records on February 5, 2013
WEATHER CONDITIONS BREAKOUT
WIND DIRECTION BREAKOUT
WEATHER BY HOUR - FEBRUARY 5, 2013
[ °C ]   °F
Local TimeTemperatureDewpointHumidityBarometerVisibilityWind DirectionWind SpeedGust SpeedPrecipitationEventsConditions
12:35 AM48.2 °F42.8 °F82 %30.04 in10.0 miSouth (180°)12.7 mph18.4 mphOvercast
12:55 AM48.2 °F42.8 °F82 %30.04 in10.0 miSouth (170°)8.1 mphOvercast
1:15 AM48.2 °F42.8 °F82 %30.02 in10.0 miSouth (170°)12.7 mphOvercast
1:35 AM48.2 °F42.8 °F82 %30.02 in10.0 miSSE (160°)12.7 mph17.3 mphOvercast
1:55 AM48.2 °F42.8 °F82 %30.02 in10.0 miSSE (150°)10.4 mphOvercast
2:15 AM48.2 °F42.8 °F82 %30.02 in10.0 miSE (140°)9.2 mphOvercast
2:35 AM46.4 °F42.8 °F87 %30.01 in10.0 miSE (130°)12.7 mph16.1 mphOvercast
2:55 AM48.2 °F42.8 °F82 %30.00 in10.0 miSE (140°)10.4 mphOvercast
3:15 AM48.2 °F42.8 °F82 %30.00 in10.0 miSSE (150°)9.2 mphOvercast
3:35 AM48.2 °F42.8 °F82 %29.99 in10.0 miSSE (150°)9.2 mphOvercast
3:55 AM48.2 °F42.8 °F82 %29.99 in10.0 miSSE (160°)9.2 mphOvercast
4:15 AM48.2 °F42.8 °F82 %29.99 in9.0 miSouth (180°)3.5 mphOvercast
4:35 AM46.4 °F44.6 °F93 %29.99 in4.0 miSSE (160°)3.5 mphOvercast
4:55 AM46.4 °F44.6 °F93 %29.99 in3.0 miSSE (150°)3.5 mph0.01 inOvercast
5:35 AM44.6 °F42.8 °F93 %29.98 in9.0 miSE (140°)10.4 mphOvercast
5:55 AM44.6 °F44.6 °F100 %29.98 in8.0 miSSE (150°)9.2 mphOvercast
6:15 AM46.4 °F44.6 °F93 %29.99 in10.0 miSSE (160°)4.6 mphOvercast
6:35 AM46.4 °F44.6 °F93 %29.99 in10.0 miSSW (210°)3.5 mphOvercast
6:55 AM46.4 °F46.4 °F100 %30.00 in10.0 miSouth (190°)9.2 mph0.01 inOvercast
7:15 AM46.4 °F46.4 °F100 %30.00 in10.0 miSouth (190°)12.7 mph17.3 mphOvercast
7:35 AM48.2 °F46.4 °F93 %30.00 in10.0 miSSW (200°)15.0 mph19.6 mphMostly Cloudy
7:55 AM48.2 °F46.4 °F93 %30.01 in10.0 miSSW (200°)15.0 mph18.4 mphOvercast
8:15 AM48.2 °F46.4 °F93 %30.01 in10.0 miSouth (190°)12.7 mph18.4 mphMostly Cloudy
8:35 AM48.2 °F46.4 °F93 %30.02 in10.0 miSSW (210°)11.5 mphMostly Cloudy
8:55 AM48.2 °F46.4 °F93 %30.02 in10.0 miSSW (200°)12.7 mph18.4 mphMostly Cloudy
9:15 AM48.2 °F46.4 °F93 %30.03 in10.0 miSouth (190°)10.4 mph16.1 mphOvercast
9:35 AM48.2 °F46.4 °F93 %30.03 in10.0 miSouth (170°)10.4 mph19.6 mphMostly Cloudy
9:55 AM50.0 °F46.4 °F87 %30.03 in10.0 miSouth (170°)11.5 mphMostly Cloudy
10:15 AM51.8 °F48.2 °F88 %30.03 in10.0 miSouth (180°)15.0 mphMostly Cloudy
10:35 AM51.8 °F48.2 °F88 %30.04 in10.0 miSouth (190°)13.8 mph20.7 mphOvercast
10:55 AM51.8 °F48.2 °F88 %30.04 in10.0 miSSW (200°)12.7 mphOvercast
11:15 AM51.8 °F48.2 °F88 %30.04 in10.0 miSSW (200°)12.7 mph21.9 mphOvercast
11:35 AM51.8 °F48.2 °F88 %30.04 in10.0 miSSW (210°)16.1 mph25.3 mphMostly Cloudy
11:55 AM53.6 °F48.2 °F82 %30.04 in10.0 miSSW (210°)16.1 mph24.2 mphScattered Clouds
12:15 PM53.6 °F48.2 °F82 %30.04 in10.0 miSSW (210°)17.3 mph24.2 mphMostly Cloudy
12:35 PM53.6 °F48.2 °F82 %30.04 in10.0 miSW (220°)11.5 mph16.1 mphMostly Cloudy
12:55 PM53.6 °F48.2 °F82 %30.04 in10.0 miSSW (210°)15.0 mph25.3 mphMostly Cloudy
1:15 PM53.6 °F46.4 °F77 %30.04 in10.0 miSW (230°)13.8 mph19.6 mphOvercast
1:35 PM53.6 °F46.4 °F77 %30.04 in10.0 miSW (230°)10.4 mph19.6 mphMostly Cloudy
1:55 PM53.6 °F46.4 °F77 %30.03 in10.0 miSW (230°)13.8 mph21.9 mphScattered Clouds
2:15 PM53.6 °F44.6 °F72 %30.04 in10.0 miSW (220°)10.4 mph20.7 mphMostly Cloudy
2:35 PM53.6 °F44.6 °F72 %30.04 in10.0 miSW (230°)15.0 mph21.9 mphOvercast
2:55 PM53.6 °F46.4 °F77 %30.04 in10.0 miSSW (210°)13.8 mph23.0 mphOvercast
3:15 PM53.6 °F46.4 °F77 %30.05 in10.0 miSSW (210°)12.7 mph18.4 mphOvercast
3:35 PM51.8 °F46.4 °F82 %30.04 in10.0 miSW (220°)12.7 mph18.4 mphOvercast
3:55 PM50.0 °F46.4 °F87 %30.05 in4.0 miSW (230°)12.7 mph23.0 mph0.04 inOvercast
4:15 PM50.0 °F48.2 °F94 %30.06 in10.0 miSSW (200°)10.4 mph16.1 mph0.02 inMostly Cloudy
4:35 PM48.2 °F46.4 °F93 %30.06 in10.0 miSSW (200°)11.5 mph0.02 inOvercast
4:55 PM48.2 °F46.4 °F93 %30.07 in10.0 miSSW (200°)8.1 mph0.02 inOvercast
5:15 PM48.2 °F46.4 °F93 %30.07 in10.0 miSSW (210°)8.1 mphOvercast
5:35 PM50.0 °F48.2 °F94 %30.07 in10.0 miSW (220°)8.1 mph18.4 mphOvercast
5:55 PM48.2 °F46.4 °F93 %30.08 in10.0 miSW (220°)6.9 mphMostly Cloudy
6:15 PM48.2 °F46.4 °F93 %30.08 in10.0 miSSW (210°)6.9 mphPartly Cloudy
6:35 PM48.2 °F46.4 °F93 %30.09 in10.0 miSSW (200°)6.9 mphPartly Cloudy
7:15 PM48.2 °F46.4 °F93 %30.10 in10.0 miSouth (180°)6.9 mphMostly Cloudy
7:35 PM48.2 °F46.4 °F93 %30.11 in10.0 miSouth (180°)6.9 mphOvercast
7:55 PM48.2 °F46.4 °F93 %30.11 in10.0 miSouth (190°)8.1 mphOvercast
8:15 PM48.2 °F46.4 °F93 %30.11 in9.0 miSouth (170°)6.9 mphMostly Cloudy
8:35 PM48.2 °F46.4 °F93 %30.12 in7.0 miSSW (210°)8.1 mph0.02 inOvercast
8:55 PM46.4 °F44.6 °F93 %30.12 in10.0 miSSW (200°)10.4 mph18.4 mph0.04 inMostly Cloudy
9:15 PM46.4 °F44.6 °F93 %30.12 in10.0 miSouth (190°)5.8 mphOvercast
9:35 PM46.4 °F44.6 °F93 %30.12 in10.0 miSouth (170°)5.8 mphOvercast
9:55 PM44.6 °F42.8 °F93 %30.13 in10.0 miSSE (160°)5.8 mphMostly Cloudy
10:15 PM42.8 °F42.8 °F100 %30.13 in9.0 miSouth (170°)5.8 mphMostly Cloudy
10:35 PM42.8 °F42.8 °F100 %30.13 in7.0 miSSE (160°)5.8 mphMostly Cloudy
11:15 PM46.4 °F46.4 °F100 %30.14 in9.0 miSouth (190°)5.8 mphMostly Cloudy
11:35 PM46.4 °F44.6 °F93 %30.14 in8.0 miSSW (200°)6.9 mph16.1 mph0.02 inMostly Cloudy
11:55 PM46.4 °F44.6 °F93 %30.15 in10.0 miSouth (190°)3.5 mph0.02 inOvercast
Hourly data recorded from KOTH, located miles away from Broadbent, Oregon







STORIES FROM OUR PARTNERS